TimePST,TemperatureF,Dew PointF,Humidity,Sea Level PressureIn,VisibilityMPH,Wind Direction,Wind SpeedMPH,Gust SpeedMPH,PrecipitationIn,Events,Conditions,WindDirDegrees,DateUTC
12:58 AM,29.1,28.9,99,30.60,10.0,Calm,Calm,-,N/A,,Overcast,0,2013-01-15 08:58:00
1:58 AM,28.9,28.4,98,30.63,10.0,SSE,1.2,-,N/A,,Overcast,150,2013-01-15 09:58:00
2:28 AM,28.4,28.4,100,30.61,10.0,Calm,Calm,-,N/A,,Overcast,0,2013-01-15 10:28:00
2:58 AM,29.7,29.1,98,30.63,10.0,Calm,Calm,-,N/A,,Overcast,0,2013-01-15 10:58:00
3:58 AM,30.4,29.8,98,30.64,10.0,Calm,Calm,-,N/A,,Overcast,0,2013-01-15 11:58:00
4:03 AM,32.0,30.2,93,30.62,10.0,Calm,Calm,-,N/A,,Overcast,0,2013-01-15 12:03:00
4:08 AM,32.0,30.2,93,30.62,10.0,Calm,Calm,-,N/A,,Overcast,0,2013-01-15 12:08:00
4:58 AM,31.1,30.4,97,30.65,10.0,NNE,1.2,-,N/A,,Overcast,20,2013-01-15 12:58:00
5:04 AM,32.0,30.2,93,30.62,10.0,Calm,Calm,-,N/A,,Overcast,0,2013-01-15 13:04:00
5:19 AM,32.0,30.2,93,30.62,10.0,SW,1.2,-,N/A,,Overcast,220,2013-01-15 13:19:00
5:34 AM,32.0,32.0,100,30.62,10.0,South,3.5,-,N/A,,Overcast,180,2013-01-15 13:34:00
5:44 AM,32.0,32.0,100,30.62,10.0,South,2.3,-,N/A,,Overcast,180,2013-01-15 13:44:00
5:54 AM,32.0,32.0,100,30.63,10.0,South,2.3,-,N/A,,Overcast,170,2013-01-15 13:54:00
5:58 AM,32.0,32.0,100,30.66,10.0,South,3.5,-,N/A,,Overcast,180,2013-01-15 13:58:00
6:36 AM,32.0,32.0,100,30.64,10.0,SSE,1.2,-,N/A,,Overcast,160,2013-01-15 14:36:00
6:58 AM,31.5,30.9,98,30.68,10.0,South,2.3,-,N/A,,Overcast,180,2013-01-15 14:58:00
7:58 AM,31.5,30.9,98,30.69,10.0,Calm,Calm,-,N/A,,Overcast,0,2013-01-15 15:58:00
8:58 AM,32.0,31.1,96,30.71,10.0,South,1.2,-,N/A,,Overcast,190,2013-01-15 16:58:00
9:58 AM,33.8,32.0,93,30.71,10.0,SW,1.2,-,N/A,,Overcast,220,2013-01-15 17:58:00
10:13 AM,37.4,32.0,81,30.68,10.0,Calm,Calm,-,N/A,,Scattered Clouds,0,2013-01-15 18:13:00
10:58 AM,39.7,34.0,80,30.71,10.0,North,4.6,-,N/A,,Partly Cloudy,10,2013-01-15 18:58:00
11:58 AM,41.4,34.3,76,30.70,10.0,North,6.9,-,N/A,,Partly Cloudy,10,2013-01-15 19:58:00
12:58 PM,43.0,33.6,70,30.69,10.0,North,9.2,-,N/A,,Partly Cloudy,360,2013-01-15 20:58:00
1:58 PM,43.5,32.4,65,30.69,10.0,NNE,8.1,-,N/A,,Clear,20,2013-01-15 21:58:00
2:58 PM,43.0,32.2,66,30.70,10.0,North,8.1,-,N/A,,Clear,10,2013-01-15 22:58:00
3:58 PM,41.7,32.4,69,30.70,10.0,NNE,6.9,-,N/A,,Clear,20,2013-01-15 23:58:00
4:58 PM,38.7,31.3,75,30.69,10.0,NNE,2.3,-,N/A,,Clear,30,2013-01-16 00:58:00
5:58 PM,36.3,30.9,81,30.69,10.0,Calm,Calm,-,N/A,,Clear,0,2013-01-16 01:58:00
6:58 PM,30.9,30.0,96,30.70,10.0,Calm,Calm,-,N/A,,Clear,0,2013-01-16 02:58:00
7:58 PM,29.3,28.9,99,30.70,10.0,South,1.2,-,N/A,,Clear,180,2013-01-16 03:58:00
8:58 PM,27.3,27.1,99,30.71,10.0,SSW,3.5,-,N/A,,Clear,200,2013-01-16 04:58:00
9:58 PM,27.1,26.8,99,30.70,10.0,SSE,3.5,-,N/A,,Clear,160,2013-01-16 05:58:00
10:58 PM,25.0,24.4,98,30.69,9.0,SSE,2.3,-,N/A,,Clear,160,2013-01-16 06:58:00
11:58 PM,24.6,24.1,98,30.69,9.0,SSW,2.3,-,N/A,,Clear,200,2013-01-16 07:58:00